User: anonymous   Login
Location: Holmes Observatory
(37.1039°N, 122.0513°W)
Time: 14:54:17
(UTC-07:00)
Language:

Cosmos 921 Rocket - Orbit

View from above orbital plane
View from above orbital plane
View from above satellite
View from above satellite

Ground track
Ground track

The orbit data is extracted from the following two-line orbital elements,

1 10096U 77055B   16125.78229710 +.00000161 +00000-0 +19247-4 0  9996
2 10096 075.8356 004.9526 0042938 168.0011 192.2214 14.88455784101288
Epoch (UTC): 04 May 2016 18:46:30
Eccentricity: 0.0042938
inclination: 75.8356°
perigee height: 573 km
apogee height: 633 km
right ascension of ascending node: 4.9526°
argument of perigee: 168.0011°
revolutions per day: 14.88455784
mean anomaly at epoch: 192.2214°
orbit number at epoch: 10128

The dashed part of the orbit path shows where the satellite is in the earth's shadow,  

DLR